This is the latest recevied weather packets stored in our database for station/object N1YZ. If no packets are shown the sender has not sent any weather packets the latest 1 day(s).
| Time | Temp. | Humidity | Pressure | Rain* | Wind** | Luminosity | Snow |
|---|---|---|---|---|---|---|---|
| 1778072291 | 20° C | 93% | 1034.2 hPa | 0 mm | - | 37 W/m² | - |
| 1778071384 | 20° C | 93% | 1034.1 hPa | 0 mm | - | 27 W/m² | - |
| 1778068359 | 19.44° C | 92% | 1032.9 hPa | 0 mm | - | 14 W/m² | - |
| 1778067754 | 18.89° C | 92% | 1033 hPa | 0 mm | - | 7 W/m² | - |
| 1778067452 | 18.89° C | 92% | 1033.3 hPa | 0 mm | - | 4 W/m² | - |
| 1778066544 | 18.89° C | 91% | 1032.6 hPa | 0 mm | - | 4 W/m² | - |
| 1778065635 | 18.89° C | 91% | 1032.8 hPa | 0 mm | - | 1 W/m² | - |
| 1778065333 | 18.89° C | 91% | 1032.7 hPa | 0 mm | - | 0 W/m² | - |
| 1778062911 | 18.89° C | 90% | 1032.2 hPa | 0 mm | - | 0 W/m² | - |
| 1778062304 | 18.89° C | 90% | 1032.1 hPa | 0 mm | - | 0 W/m² | - |
| 1778062003 | 18.89° C | 90% | 1032 hPa | 0 mm | - | 0 W/m² | - |
| 1778061399 | 19.44° C | 89% | 1031.9 hPa | 0 mm | - | 0 W/m² | - |
| 1778061095 | 19.44° C | 89% | 1031.9 hPa | 0 mm | - | 0 W/m² | - |
| 1778059280 | 19.44° C | 88% | 1031.3 hPa | 0 mm | - | 0 W/m² | - |
| 1778058978 | 19.44° C | 88% | 1031.4 hPa | 0 mm | - | 0 W/m² | - |
| 1778058373 | 19.44° C | 87% | 1031.5 hPa | 0 mm | - | 0 W/m² | - |
| 1778056547 | 19.44° C | 87% | 1031 hPa | 0 mm | - | 0 W/m² | - |
| 1778055941 | 19.44° C | 86% | 1031.1 hPa | 0 mm | - | 0 W/m² | - |
| 1778055335 | 19.44° C | 86% | 1031.1 hPa | 0 mm | - | 0 W/m² | - |
| 1778054730 | 19.44° C | 85% | 1031.2 hPa | 0 mm | - | 0 W/m² | - |
| 1778054427 | 19.44° C | 85% | 1031.1 hPa | 0 mm | - | 0 W/m² | - |
| 1778053821 | 19.44° C | 85% | 1031.3 hPa | 0 mm | - | 0 W/m² | - |
| 1778051400 | 20° C | 82% | 1031.2 hPa | 0 mm | - | 0 W/m² | - |
| 1778051097 | 20° C | 82% | 1031.4 hPa | 0 mm | - | 0 W/m² | - |
| 1778050188 | 20° C | 82% | 1031.4 hPa | 0 mm | - | 0 W/m² | - |
* Rain latest hour (hover to see other rain measurements)
** Current wind speed in m/s (hover to see current wind gust speed)